Wind_Speed
18 18 18 18 18 18 18 18 18 18 18 17 17 17 16 15 15 14 13 12 11 10 10 9 9 8 8 8 9 9 10 11 11 12 12 11 11 11 11 11 10 10 10 10 11 11 11 12 13 14 14 15 15 16 17 17 16 16 16 15 14 13 13 12 12 12 12 12 13 14 15 16 17 18 18 19 19 19 20 21 21 21 22 22 22 22 23 23
21 20 20 19 19 19 19 19 19 19 19 19 19 19 18 17 17 16 15 14 14 13 12 12 11 11 10 10 9 9 10 10 11 12 12 12 12 12 11 12 11 11 11 11 11 11 11 12 12 13 14 15 15 16 17 17 17 17 17 16 16 15 15 14 13 12 12 13 13 14 14 15 16 17 18 18 18 19 20 20 20 20 21 21 21 21 21 21
25 24 23 22 22 21 21 21 20 20 20 20 20 20 20 20 19 18 18 17 16 15 14 14 13 13 13 12 11 11 11 11 12 12 12 12 12 12 12 12 12 11 11 12 12 12 12 12 13 13 13 14 15 16 17 18 18 18 18 17 17 17 16 16 15 14 13 13 13 14 14 14 15 16 17 18 18 19 20 20 20 20 20 20 21 21 21 22
28 28 27 26 25 24 24 23 23 22 22 22 22 22 22 22 21 20 20 19 19 18 17 16 15 15 15 15 14 13 12 12 12 12 13 13 13 13 13 13 13 12 12 12 12 13 13 13 14 14 14 15 15 15 16 17 18 18 18 18 18 18 18 18 17 16 15 14 14 14 14 14 14 14 16 17 18 19 20 20 20 21 21 22 22 22 23 23
31 31 30 29 29 28 27 26 26 25 25 24 24 24 23 24 24 23 22 21 21 20 20 19 18 17 17 17 17 16 15 14 14 14 14 14 14 14 14 14 14 14 13 13 13 13 14 14 15 15 15 16 15 15 16 17 17 18 19 19 19 19 19 19 19 18 17 16 15 15 15 15 15 15 16 17 18 18 19 20 20 21 22 23 23 24 24 24
34 34 33 33 32 31 30 29 29 28 27 27 26 26 25 25 25 25 24 24 23 23 22 22 21 20 19 19 19 18 17 16 16 16 16 16 16 15 15 15 15 15 15 15 14 14 14 14 15 15 15 16 16 17 17 17 17 18 19 19 19 20 20 20 20 20 19 18 17 16 16 16 16 17 17 18 19 19 19 20 20 20 22 23 24 24 25 25
36 36 36 35 35 34 33 33 32 31 30 29 28 28 27 27 27 27 26 26 25 25 25 24 23 23 22 21 21 21 20 19 18 18 18 18 18 17 17 17 16 16 16 16 16 16 16 16 16 16 16 16 17 17 18 18 18 19 19 19 20 21 21 21 21 21 21 20 18 17 17 18 18 18 19 20 20 21 21 22 22 22 23 24 24 25 26 26
37 37 37 37 36 36 35 35 34 34 33 32 31 30 30 29 28 29 28 28 28 27 27 26 26 25 25 24 23 23 22 21 21 20 20 19 19 20 19 19 18 17 17 17 17 17 17 17 17 17 17 17 17 18 18 19 20 20 20 21 21 21 22 22 22 22 22 21 20 20 19 20 20 19 20 21 21 22 23 24 24 25 25 26 26 27 28 28
37 37 37 37 37 37 37 37 36 36 35 35 34 33 32 31 30 30 30 30 29 29 29 28 28 27 27 26 26 25 25 24 23 23 22 22 22 22 22 21 20 19 19 19 19 19 19 19 19 19 19 18 18 18 19 19 20 21 22 22 22 22 23 23 23 23 23 23 22 21 21 22 22 20 21 21 21 22 23 24 25 26 27 28 28 29 29 29
38 38 38 38 38 38 38 38 38 37 37 37 36 35 34 34 33 33 32 32 31 31 31 31 30 30 29 29 28 28 27 26 26 25 24 24 24 24 24 23 22 22 21 21 20 21 20 21 21 20 20 20 20 19 20 20 20 21 22 23 23 23 24 24 24 24 24 24 23 22 22 24 24 22 21 22 22 22 23 24 25 26 28 29 29 29 30 30
38 38 38 38 39 39 39 39 39 39 39 38 38 37 36 36 36 35 35 34 33 33 32 32 32 32 32 31 31 30 29 29 28 27 27 26 26 26 25 25 24 24 24 23 22 22 22 22 22 22 22 21 21 21 21 21 21 22 23 23 24 24 25 25 26 25 26 25 24 23 21 24 27 24 23 23 23 23 24 25 26 27 28 29 30 30 30 31
38 38 38 39 39 39 40 40 40 40 40 40 40 39 38 38 38 37 37 37 36 35 35 34 34 34 33 33 33 32 32 31 30 30 29 29 28 28 27 27 26 26 26 26 25 25 24 24 24 24 24 23 23 23 22 22 22 23 23 24 24 25 26 26 27 27 27 27 26 24 20 21 28 27 25 25 25 25 25 26 27 28 29 30 31 31 32 32
37 38 39 39 39 40 40 40 41 41 41 41 41 41 40 40 40 39 39 39 38 38 37 36 36 35 35 34 35 35 34 33 33 32 31 31 30 29 29 29 28 28 28 28 27 27 26 26 26 25 25 25 25 25 24 24 24 24 23 24 25 25 26 27 28 28 29 30 28 27 20 16 26 30 28 28 27 27 27 27 29 29 30 31 31 32 32 33
36 37 38 39 40 40 40 41 41 42 42 42 42 43 42 41 42 42 41 40 40 40 39 39 38 37 37 36 36 37 36 36 35 34 33 33 32 31 31 31 30 30 30 30 29 29 28 28 27 27 26 27 27 27 27 26 26 26 25 24 25 26 27 28 29 29 31 32 30 31 24 16 22 29 30 29 29 28 28 29 30 31 32 32 32 33 33 34
36 36 37 38 39 40 41 41 42 42 43 43 43 44 44 43 43 43 43 42 42 42 42 41 41 40 39 37 38 38 38 38 37 36 36 35 34 33 33 33 32 32 32 32 31 31 30 30 29 29 28 28 29 29 29 29 28 28 27 26 25 26 27 29 30 31 32 33 31 32 30 21 20 27 30 31 31 29 28 29 31 32 32 32 33 33 33 34
36 36 37 38 39 39 41 41 42 42 43 43 44 44 45 44 44 45 44 44 44 44 44 43 43 43 41 40 40 40 40 39 39 38 37 37 36 35 35 35 34 34 34 34 33 33 32 32 31 31 30 30 30 31 31 30 30 30 29 28 27 27 28 29 31 33 34 34 32 33 33 26 23 26 29 31 32 31 29 30 32 32 32 32 33 33 33 34
38 37 37 37 38 39 40 41 41 42 43 44 44 45 46 45 45 45 45 46 46 46 46 46 45 46 44 43 42 41 41 41 40 39 38 38 37 37 37 36 36 36 35 35 35 34 34 34 33 32 32 31 32 33 33 32 32 32 32 30 29 28 29 30 32 34 35 36 34 36 35 31 27 27 29 31 33 32 30 31 33 32 32 33 34 34 34 34
41 40 39 38 38 38 40 40 40 41 42 43 44 45 46 46 46 46 46 47 47 47 48 47 47 47 46 45 44 44 44 43 41 40 39 39 39 38 38 38 37 37 37 37 36 36 36 35 35 34 32 33 35 35 35 35 34 34 34 33 31 30 30 31 34 36 37 37 35 37 39 35 30 29 29 32 33 33 32 33 34 33 33 34 35 35 35 35
44 43 42 41 40 39 40 40 40 41 41 42 44 45 46 47 47 47 47 47 48 48 49 48 49 48 47 47 46 46 46 45 43 41 41 40 40 40 39 39 39 38 38 38 38 38 38 37 36 34 34 35 37 36 36 37 37 37 36 35 34 33 32 33 36 37 39 41 37 38 42 39 34 32 31 33 34 34 33 34 34 34 35 37 37 36 36 37
46 46 45 44 42 42 42 41 41 41 41 41 43 44 45 46 47 47 47 47 48 48 49 49 49 49 49 48 48 48 47 46 45 43 42 42 42 42 41 41 41 40 40 40 41 40 40 40 36 35 36 38 38 37 37 38 39 39 39 38 37 37 36 36 38 39 41 44 40 40 44 41 37 36 34 34 36 34 34 35 33 34 36 38 38 38 38 38
47 47 48 47 45 45 45 44 42 42 42 41 42 44 44 45 46 47 47 47 48 49 49 49 50 49 49 49 49 49 48 47 46 45 44 44 44 44 43 43 43 43 42 43 44 43 43 42 37 37 40 39 39 39 38 39 40 41 41 41 39 39 40 39 40 41 43 46 44 43 47 44 39 38 36 36 36 34 35 35 33 34 37 38 39 38 38 39
48 48 48 49 48 48 48 47 45 44 44 43 43 44 44 45 46 47 47 47 46 47 49 48 49 49 49 49 49 49 49 48 46 46 46 46 46 46 46 45 45 44 44 45 46 45 46 43 39 40 42 41 40 40 39 41 42 43 43 43 42 41 43 43 42 44 45 49 48 47 51 47 42 41 38 37 37 34 35 35 33 34 37 38 38 37 38 40
49 49 49 49 49 50 51 50 48 47 47 46 45 45 46 46 47 47 49 49 47 45 47 48 48 48 48 48 48 48 48 47 46 46 46 47 47 47 48 46 46 46 46 46 47 48 47 44 42 42 43 42 42 41 41 42 43 45 45 45 44 43 45 46 46 46 48 50 51 52 55 52 47 43 37 37 40 37 35 34 32 34 36 37 37 37 39 41
47 49 50 50 50 51 52 52 51 50 50 49 49 48 48 49 49 49 51 54 52 47 45 48 48 47 47 47 47 46 46 46 45 45 45 46 47 48 48 47 48 47 46 47 48 49 48 45 44 43 43 44 44 43 43 43 45 46 46 46 45 45 47 49 49 50 50 52 53 54 58 56 53 48 38 35 40 40 36 33 33 35 35 35 35 37 39 41
46 46 48 50 51 52 53 53 53 52 52 52 52 51 51 51 51 52 53 57 59 52 47 49 49 47 45 45 45 44 44 44 43 43 43 45 46 47 47 47 48 47 46 48 50 50 48 46 46 45 45 45 46 45 44 45 47 49 47 45 46 47 48 50 51 52 54 55 54 55 57 58 57 53 44 37 38 41 41 37 35 35 33 33 34 36 39 41
47 46 46 48 50 53 54 54 54 53 54 54 54 53 53 53 53 54 55 60 64 59 53 52 50 48 45 44 44 43 44 44 42 42 43 44 45 46 47 47 47 47 47 49 51 51 48 45 46 46 47 47 47 45 44 46 49 50 48 46 47 49 50 51 52 54 56 57 57 55 54 60 62 55 48 43 40 40 42 41 37 35 34 33 34 37 39 42
48 48 46 46 47 50 53 55 55 55 55 55 55 55 55 55 55 55 57 63 68 65 60 56 52 49 46 45 44 44 46 45 42 43 44 44 45 46 47 46 46 47 48 49 52 51 47 46 46 47 48 48 47 46 45 47 50 51 49 48 49 49 51 53 53 55 56 58 61 55 52 61 64 55 49 46 41 38 40 43 41 38 36 35 35 38 41 44
50 49 48 47 47 48 50 52 54 56 56 56 56 56 56 56 56 56 58 66 72 69 65 60 54 50 47 44 44 45 46 46 45 45 44 44 46 46 47 46 46 47 48 49 51 49 47 47 47 47 48 48 47 46 47 48 50 51 51 50 51 51 52 53 54 56 56 59 62 55 52 61 63 58 52 46 42 40 39 43 44 40 37 36 37 39 42 46
51 51 50 49 49 49 49 50 52 53 55 57 57 57 58 57 57 57 60 69 74 70 66 62 56 51 47 45 44 45 46 46 47 47 46 47 47 47 48 47 47 48 48 49 49 47 47 47 47 47 47 47 47 47 48 49 50 51 51 52 52 52 53 55 56 57 57 61 62 55 53 60 63 59 53 46 45 45 43 43 42 39 39 40 40 41 42 45
51 52 51 50 50 50 50 50 50 51 53 55 57 58 59 59 59 60 67 74 74 69 66 63 59 53 49 47 45 45 45 46 46 47 47 48 48 48 49 48 48 49 49 49 49 47 47 47 48 48 47 47 48 49 50 50 51 51 51 52 52 53 55 57 58 57 59 63 62 57 57 62 65 60 51 49 50 48 45 42 39 39 42 43 42 41 42 45
52 52 52 51 51 51 51 51 51 51 52 52 54 56 58 60 61 66 74 76 72 68 66 63 60 55 51 49 47 46 45 45 45 46 47 48 49 50 50 49 50 50 50 51 49 48 48 49 49 49 48 49 49 49 50 50 50 50 51 51 52 55 58 59 59 59 62 65 63 60 61 64 66 59 53 54 53 50 44 39 39 42 44 44 42 41 43 47
53 53 53 52 52 51 52 52 51 52 52 52 53 54 55 59 63 70 75 73 70 69 66 61 59 57 54 52 50 48 47 47 47 47 48 49 50 51 51 50 50 50 51 51 49 49 50 49 49 49 48 48 48 48 48 48 49 50 51 52 54 57 58 60 62 62 64 66 64 63 64 66 64 57 55 55 53 50 44 40 42 43 43 43 42 42 45 49
55 55 54 54 53 53 53 53 53 53 54 53 54 54 55 59 66 69 70 69 69 68 64 61 60 58 57 56 54 51 50 50 49 50 50 51 52 52 52 51 51 50 51 50 50 51 51 50 50 48 47 47 47 47 48 49 50 51 53 54 56 58 59 62 64 64 66 66 64 65 66 66 62 57 56 55 52 50 46 44 45 43 43 43 43 44 47 50
58 57 56 56 55 55 55 55 55 55 56 56 57 56 58 64 68 67 65 65 65 64 63 63 61 60 59 59 58 56 53 52 51 51 51 52 53 53 52 52 51 51 51 52 52 52 52 53 51 48 47 48 48 48 49 51 53 56 57 58 59 60 59 61 63 65 67 66 64 65 66 65 62 60 60 57 53 51 48 46 46 44 45 45 45 45 48 50
61 60 59 58 58 58 59 59 59 59 59 59 59 59 63 68 68 64 62 61 61 61 62 62 61 61 61 61 60 58 55 54 53 52 52 53 54 54 54 53 52 52 52 52 53 52 53 56 54 52 51 51 51 52 53 55 57 60 61 61 62 61 59 60 63 64 63 63 64 65 65 65 62 62 63 57 54 54 50 48 48 48 48 47 46 46 49 51
64 63 62 61 60 61 63 64 63 64 63 63 63 64 66 67 65 63 62 61 60 59 60 60 61 62 63 62 61 58 57 56 55 55 55 56 56 57 57 54 53 53 53 53 52 52 54 57 56 56 56 55 55 55 56 59 61 62 62 62 62 60 59 60 60 59 58 61 64 64 65 65 62 66 65 57 56 56 51 49 51 50 48 47 46 47 50 52
67 66 64 62 60 60 62 64 64 66 66 66 68 67 66 65 65 64 63 62 61 59 60 61 61 61 62 62 61 59 58 58 58 59 59 59 60 61 60 57 56 56 54 53 54 55 57 58 58 59 60 60 59 60 61 63 63 62 60 59 58 58 57 56 56 57 58 61 64 63 63 65 67 70 66 60 60 57 53 54 54 50 47 45 46 49 52 54
69 68 66 63 60 58 59 61 63 64 65 66 67 67 66 66 65 64 64 64 62 62 63 63 62 62 62 62 62 61 60 60 61 61 61 62 63 63 61 59 58 57 55 54 55 57 57 58 58 58 61 61 60 61 62 61 59 58 57 55 56 57 57 56 57 59 61 64 66 63 63 68 71 71 67 63 60 56 54 56 53 49 47 46 48 52 55 57
72 71 68 64 61 60 62 64 63 63 65 66 64 63 65 65 64 63 64 64 65 65 66 65 64 64 64 64 63 63 62 62 61 62 62 63 64 63 61 61 59 58 57 56 57 58 58 59 58 56 57 57 57 59 59 58 58 58 58 58 59 60 60 60 60 62 64 66 68 66 67 72 74 72 67 62 57 54 54 54 50 47 47 48 52 55 56 57
76 75 71 66 65 66 66 67 66 65 67 67 65 64 65 64 62 60 60 62 64 66 67 66 65 66 66 65 65 64 63 64 63 64 65 65 65 64 63 62 61 59 58 59 60 60 60 61 61 60 60 60 59 59 59 59 61 62 62 62 62 61 62 63 65 66 66 67 68 68 72 77 76 72 65 58 54 52 53 52 48 46 48 52 55 55 56 57
77 78 75 70 69 69 69 70 71 70 71 70 69 70 69 65 62 60 60 61 63 64 65 66 66 66 66 66 66 65 66 67 67 67 68 67 67 66 64 63 62 62 61 62 63 62 63 63 63 63 64 64 61 60 62 64 65 65 65 64 63 63 64 66 68 67 65 67 68 69 75 78 74 67 59 55 55 52 51 51 48 49 53 55 56 56 57 58
74 78 77 74 73 72 71 73 72 73 76 76 74 73 71 69 67 65 64 64 64 64 64 64 64 65 65 66 66 67 68 69 69 70 71 69 68 67 64 63 63 64 64 65 64 64 64 64 64 65 65 65 64 65 67 68 69 70 69 67 66 66 66 65 65 65 64 68 71 73 79 79 69 60 55 54 54 51 49 51 52 55 58 57 58 59 59 60
69 73 74 74 74 73 73 74 74 77 79 77 75 74 74 74 73 70 69 69 69 68 67 67 66 66 67 67 67 68 69 70 71 71 71 70 69 67 64 63 64 64 64 65 64 63 63 64 65 64 64 65 67 68 70 72 72 71 69 68 68 68 67 65 66 68 69 73 76 76 81 79 66 56 54 54 53 48 48 53 56 58 59 58 59 60 59 59
68 69 71 72 74 75 76 75 75 77 77 74 73 74 74 75 74 73 73 73 72 72 72 72 72 72 71 69 69 69 70 72 73 73 72 71 70 68 66 65 65 65 63 63 63 63 64 64 64 64 66 68 69 70 72 72 71 69 69 69 70 69 69 69 70 72 76 79 78 78 82 78 63 55 54 54 51 48 49 55 56 57 57 58 58 58 58 57
73 73 74 74 75 78 79 76 75 77 77 76 76 74 72 73 72 71 71 72 72 73 74 75 75 74 73 72 72 72 73 74 74 73 72 72 72 71 69 68 66 64 63 62 63 65 66 66 66 66 69 71 71 71 70 70 70 71 71 71 71 69 70 71 72 75 80 82 80 81 81 74 61 56 55 52 48 49 51 53 53 54 55 57 57 57 56 54
77 77 76 74 76 79 78 75 75 78 78 78 78 75 73 71 70 68 69 69 70 71 74 75 74 74 74 74 75 75 74 73 72 72 72 73 73 71 69 67 64 62 61 60 62 65 68 70 69 70 73 75 73 71 70 71 73 73 71 70 68 67 67 69 72 75 79 83 83 79 75 71 64 57 55 50 47 48 48 48 50 53 55 56 56 55 53 52
84 81 78 75 77 81 81 78 78 80 80 80 80 78 75 73 72 71 71 71 71 71 73 74 73 75 75 74 74 74 72 70 69 70 72 71 69 68 68 66 63 62 61 61 62 66 70 71 70 71 74 74 73 71 70 72 72 69 68 66 65 64 65 68 73 75 77 83 84 72 68 72 68 58 54 50 44 43 46 50 53 55 55 55 54 53 52 53
89 86 82 80 81 84 86 84 82 83 82 82 81 78 75 74 75 75 73 71 72 73 74 75 75 75 73 70 70 70 69 70 71 71 71 69 67 67 67 65 64 64 63 63 64 65 69 71 69 70 72 73 72 70 69 69 69 67 67 67 65 66 68 70 73 74 76 82 81 72 70 73 66 57 55 48 41 44 51 53 54 55 54 55 55 54 53 53
87 87 85 84 85 87 88 86 85 86 86 85 83 81 77 74 73 73 72 72 73 73 73 74 72 71 69 69 70 71 70 71 73 71 70 68 66 66 65 65 66 66 65 66 66 67 71 73 71 72 75 75 72 71 71 70 70 69 69 68 66 67 70 72 73 73 73 77 77 74 74 71 63 59 53 42 40 49 53 53 54 54 54 55 55 54 53 54
88 87 85 84 86 87 88 87 86 88 89 88 88 86 84 82 80 78 77 77 76 74 72 73 72 70 71 71 72 74 74 74 74 72 70 69 66 66 67 68 68 68 68 69 70 72 76 77 75 74 77 78 75 72 72 73 72 72 70 69 68 70 72 73 73 71 71 73 73 71 73 72 65 58 49 42 46 52 52 53 54 53 54 56 56 55 54 55
91 90 87 87 89 89 88 87 87 87 86 86 86 83 81 83 82 80 83 83 82 81 79 76 72 71 74 75 76 77 75 73 71 69 68 67 66 66 67 67 67 67 68 68 70 73 75 76 76 76 80 82 77 73 74 74 75 76 74 72 71 71 72 73 73 72 73 74 71 70 73 73 65 55 49 49 53 55 53 54 55 55 57 58 56 55 55 55
92 91 89 88 91 92 90 90 92 92 91 89 87 83 81 80 77 76 80 82 82 82 81 76 71 69 71 72 72 71 68 63 60 61 64 68 69 67 65 65 66 66 67 68 69 72 74 76 76 76 80 82 77 75 77 77 78 81 78 75 71 68 67 69 69 69 70 71 72 72 73 68 59 53 53 55 57 56 55 55 58 60 60 58 56 54 54 54
Wind_Direction
244 245 245 246 248 249 251 254 257 261 265 268 271 273 276 279 281 282 284 284 285 286 287 288 290 295 301 310 318 325 331 335 338 339 339 339 339 336 337 338 341 346 349 352 354 354 353 350 343 338 334 329 326 325 324 325 328 329 329 326 322 318 317 319 323 326 324 319 315 310 307 304 304 304 304 304 303 301 298 295 295 294 293 293 293 292 291 290
246 247 247 248 249 250 252 254 256 259 262 265 268 271 272 274 276 278 279 280 281 281 281 282 284 286 290 294 301 309 316 322 326 330 333 333 332 330 329 329 329 333 339 343 346 348 348 348 344 340 334 328 325 323 321 321 323 326 327 327 324 322 320 320 323 327 327 325 321 316 311 307 305 304 303 302 302 300 297 297 298 297 296 296 294 292 291 291
248 249 249 249 249 250 252 253 255 257 259 262 265 268 270 271 272 274 276 277 278 277 277 277 278 281 283 286 290 296 301 309 313 318 323 324 325 325 323 322 320 321 328 333 337 340 342 343 340 339 336 329 325 322 318 317 318 321 323 324 324 323 321 320 322 325 328 328 328 324 320 315 310 305 301 299 298 296 296 298 300 298 297 295 294 293 292 291
249 250 251 251 251 251 252 252 254 255 257 259 261 265 268 270 270 271 273 274 276 276 275 275 274 276 278 281 283 286 290 296 300 305 311 313 316 319 318 317 315 313 316 322 328 331 335 336 336 337 334 329 324 320 318 317 316 317 319 320 321 321 320 320 321 323 326 329 330 328 325 321 318 312 306 303 301 301 301 301 300 298 296 294 294 293 291 290
249 250 251 252 252 253 253 253 253 254 255 257 258 261 264 267 269 270 270 271 273 274 274 274 273 272 273 275 278 280 283 286 291 295 300 303 306 309 311 312 312 309 308 311 316 321 325 328 330 331 330 327 323 320 319 317 316 315 315 316 317 318 318 319 321 323 326 328 330 329 326 324 322 318 315 313 313 314 310 306 303 300 298 296 294 292 291 291
248 249 250 251 252 253 254 254 255 255 255 256 257 259 261 264 267 269 269 269 270 271 273 272 273 272 271 271 273 276 278 280 285 288 291 294 297 301 303 305 308 308 306 306 308 311 315 319 321 323 324 323 322 320 320 318 316 314 312 312 313 314 314 316 318 320 323 326 329 329 327 324 322 321 320 319 320 320 315 312 311 307 304 302 299 297 295 294
248 249 249 250 251 252 253 255 256 257 257 257 257 258 259 261 264 267 268 268 268 269 270 271 271 272 271 270 270 272 274 276 279 281 284 287 290 294 296 298 302 304 303 303 303 304 307 309 312 315 317 319 321 320 319 318 316 314 312 312 312 311 311 312 314 316 319 322 325 327 327 324 322 324 323 322 322 319 317 315 314 311 309 307 304 303 301 300
252 251 251 251 252 252 253 254 255 256 257 258 258 259 259 260 261 264 266 267 268 268 269 269 270 270 271 271 270 270 271 273 275 277 279 281 284 287 290 291 294 298 299 300 301 301 302 304 305 307 310 315 317 317 317 316 315 315 314 313 313 312 310 311 311 312 314 317 320 323 325 322 322 327 325 324 324 321 319 317 315 313 311 309 307 306 305 304
254 254 254 254 254 255 255 255 256 256 257 258 258 259 260 260 261 262 263 265 266 268 268 268 269 269 270 270 270 270 270 271 272 274 277 278 280 282 284 286 289 292 294 296 297 298 299 301 302 303 304 308 311 313 313 313 313 313 314 314 314 313 311 311 311 310 311 313 316 318 321 319 319 324 324 324 325 323 322 319 317 315 312 310 308 307 306 305
255 255 256 256 256 257 257 258 258 258 259 259 259 259 260 261 261 262 262 263 264 266 267 268 268 269 269 269 270 270 270 271 271 272 274 275 277 279 280 282 285 287 289 291 293 295 297 298 300 301 301 302 305 307 309 310 310 311 312 313 313 313 312 312 311 310 310 310 312 314 318 316 314 319 320 321 322 322 321 319 317 315 312 311 309 307 306 305
256 256 256 257 257 258 258 259 259 260 260 261 261 261 261 262 262 262 263 263 264 264 265 266 267 268 268 269 269 270 271 271 271 271 272 273 275 276 278 279 282 284 286 287 289 292 293 295 297 299 299 300 301 303 305 306 307 308 309 310 312 312 312 312 311 311 310 309 310 311 317 315 311 314 316 317 319 318 318 317 316 315 313 312 310 308 307 305
258 258 257 257 258 258 259 259 260 260 261 262 262 262 263 263 263 263 264 264 264 264 264 264 265 266 266 268 268 269 270 271 271 271 272 272 273 274 276 278 280 282 283 285 287 289 290 292 294 296 297 298 299 301 301 303 304 304 305 307 309 310 310 311 310 311 309 309 309 310 318 318 309 312 314 314 316 315 314 314 313 313 312 312 311 310 309 307
260 259 258 258 258 258 259 260 260 261 261 262 262 263 263 264 264 264 265 265 265 265 265 265 265 265 265 266 267 268 269 270 270 271 271 272 273 274 276 277 279 281 282 283 285 286 288 289 291 293 295 297 299 300 300 301 302 302 302 304 306 308 308 308 308 309 308 308 308 308 316 321 310 310 313 314 315 314 313 312 311 311 310 311 312 312 311 310
261 260 260 259 258 258 259 259 261 262 262 263 263 264 264 264 265 265 266 266 267 267 267 267 267 266 265 266 267 268 269 269 270 271 271 272 273 274 276 277 279 280 281 283 284 285 286 287 289 290 292 295 297 298 299 300 300 301 301 301 303 305 306 306 306 307 306 306 308 307 311 321 312 308 311 313 313 313 315 313 311 310 309 310 311 312 312 311
261 261 261 260 260 259 259 259 260 261 262 263 264 265 265 265 266 266 267 268 268 268 269 269 269 268 267 267 267 268 269 270 270 271 271 272 274 275 276 277 278 279 280 282 283 284 285 286 287 289 290 293 295 297 298 298 300 300 300 299 300 302 303 304 304 305 303 303 307 307 308 317 313 307 309 311 311 312 315 314 311 309 309 309 309 310 311 310
262 261 261 261 261 261 260 260 260 261 262 263 264 265 265 265 266 267 268 268 269 269 270 270 271 270 270 269 269 269 270 270 271 272 273 274 275 276 277 277 278 279 280 281 282 283 284 286 287 288 290 292 294 295 295 296 299 299 300 299 298 300 301 302 302 302 301 302 306 305 306 313 312 306 307 308 308 310 315 314 310 309 309 308 307 307 309 309
264 263 262 262 262 262 262 261 261 261 262 263 264 265 265 265 266 267 268 269 269 270 270 271 271 271 271 271 271 271 271 271 272 273 274 276 277 277 278 279 279 280 281 281 282 283 284 285 287 288 291 293 293 292 293 295 297 297 298 298 298 298 299 300 300 299 299 301 305 304 305 308 309 306 305 305 305 307 312 311 308 310 310 307 306 306 307 307
265 264 263 262 262 262 262 262 262 262 262 263 264 265 266 266 266 266 267 268 269 270 270 271 271 271 272 272 273 273 272 272 273 274 275 276 277 278 278 279 280 280 280 281 283 283 284 285 287 290 293 293 290 291 294 295 295 296 297 297 297 296 297 299 298 297 298 300 303 304 304 305 307 307 305 304 303 306 310 308 307 310 310 308 307 307 307 306
264 264 264 264 263 263 263 263 263 262 262 263 264 264 265 266 267 266 267 267 268 269 269 270 270 271 272 272 272 273 273 274 274 275 276 277 277 278 279 279 280 280 280 282 282 282 284 285 287 291 292 290 290 293 294 294 295 295 295 296 296 295 296 297 296 296 298 298 301 302 301 303 308 308 305 303 304 306 307 305 307 310 309 307 307 308 308 306
264 264 264 264 264 264 264 264 263 263 262 262 263 264 264 265 266 266 267 267 267 267 268 269 269 270 271 271 272 273 273 274 276 277 277 278 278 278 278 279 279 279 281 281 281 282 283 284 287 290 289 289 292 293 294 295 295 295 295 296 296 296 296 296 295 296 296 296 299 300 298 302 308 307 306 304 305 307 304 303 307 308 305 304 306 309 310 307
264 264 263 264 264 265 265 265 264 264 264 263 263 264 264 265 265 266 266 266 267 268 268 268 269 270 270 271 271 272 273 275 276 278 278 278 278 278 278 278 279 279 280 280 280 282 282 283 287 288 287 290 292 293 294 295 294 295 295 295 296 296 296 295 295 296 296 296 298 298 297 301 306 305 305 304 305 307 303 303 306 303 300 301 305 309 309 307
263 263 264 264 264 264 265 265 265 265 265 265 264 265 265 266 267 267 267 266 266 268 269 269 269 269 269 270 271 272 274 275 277 278 278 278 279 279 278 278 278 279 279 280 281 281 281 283 286 286 288 290 291 292 293 293 294 295 294 295 296 296 295 295 296 296 296 296 298 298 297 301 303 303 305 306 305 306 304 303 304 299 298 301 305 307 306 306
262 262 263 264 264 263 264 264 265 265 266 266 266 266 266 267 268 269 270 269 267 266 268 270 270 270 270 270 272 273 274 276 276 277 278 278 278 278 279 279 279 279 279 280 281 281 282 284 285 286 288 290 290 291 292 292 293 293 293 294 296 297 296 296 297 297 296 296 298 299 299 302 303 302 307 309 306 305 303 302 301 298 298 301 304 305 305 304
265 263 262 262 263 263 264 264 265 265 266 266 266 266 266 267 268 269 270 272 270 266 266 269 269 270 272 272 274 275 276 277 277 278 278 278 278 279 279 279 279 279 280 281 281 281 283 285 286 287 288 288 289 290 291 293 292 291 292 294 296 296 296 297 297 297 296 296 297 299 301 303 304 303 307 310 306 305 304 305 304 301 300 301 302 302 301 299
268 267 264 263 262 262 263 264 264 265 265 266 266 267 267 267 268 269 270 272 272 270 266 266 267 269 272 274 276 277 278 279 279 280 280 280 280 279 279 279 279 280 281 281 281 281 283 285 286 287 287 287 288 289 292 292 291 290 291 294 295 295 296 296 296 297 296 297 298 299 302 305 304 304 310 314 309 307 309 311 308 303 301 302 301 298 296 295
268 268 268 266 265 264 263 263 264 264 265 265 266 266 267 268 268 269 270 271 273 272 268 265 266 268 271 273 275 277 279 280 281 281 281 280 280 280 280 280 281 281 280 280 280 280 283 285 285 286 286 286 287 289 291 290 289 289 291 293 293 294 295 294 295 295 296 297 298 298 303 305 301 303 311 314 310 310 312 312 310 306 305 304 300 297 295 294
266 267 267 267 267 266 265 265 264 264 265 265 265 266 267 268 269 270 271 272 272 272 270 267 267 269 270 272 274 275 277 279 279 278 278 279 279 279 280 281 281 281 280 279 280 282 284 284 284 285 285 286 287 289 289 287 287 289 291 292 292 293 293 293 293 293 294 297 297 298 302 301 298 302 309 309 309 312 312 309 309 308 306 304 300 298 297 295
263 265 266 266 267 267 267 267 266 265 265 265 265 266 266 267 268 269 271 271 271 271 271 272 272 272 273 274 275 275 276 277 277 275 276 277 277 278 279 279 279 279 279 279 281 283 284 284 284 284 284 285 287 288 286 286 287 289 291 291 291 291 291 292 291 291 294 294 295 299 300 297 298 301 305 308 310 312 310 307 307 308 306 304 302 300 298 296
261 262 263 264 265 266 267 267 267 267 267 266 266 266 266 266 267 268 268 268 269 271 273 275 276 276 277 277 277 276 276 276 276 276 276 275 275 276 276 277 277 277 278 278 280 282 283 283 283 283 283 285 285 284 284 285 286 288 290 290 290 290 290 290 289 290 292 292 296 300 297 296 298 297 302 309 310 310 310 308 306 307 307 306 304 301 299 298
260 261 262 263 264 264 266 266 267 268 267 267 267 266 266 266 266 266 265 265 267 270 274 276 277 279 280 279 278 277 276 277 277 277 277 276 276 275 275 275 275 276 276 277 279 280 281 281 281 282 282 282 282 282 283 284 286 287 288 288 289 289 288 287 288 289 290 292 297 297 295 297 296 295 304 310 308 309 310 306 306 309 309 306 304 304 302 300
260 261 262 263 263 264 265 266 266 267 267 268 267 267 266 266 265 263 263 264 268 270 272 275 278 280 280 278 277 276 277 277 277 278 278 278 277 276 276 276 276 276 277 278 280 280 280 280 280 280 280 280 281 282 283 284 285 285 286 286 286 286 285 286 287 289 290 293 295 295 296 296 292 295 306 308 306 307 306 305 308 311 308 305 306 306 303 300
260 261 262 263 263 264 265 266 267 267 267 267 267 267 266 265 264 262 262 266 268 269 272 275 278 279 279 278 277 277 277 276 277 277 277 277 277 277 278 278 278 278 279 281 281 280 279 279 279 279 280 281 282 282 283 284 284 284 285 285 284 284 284 286 290 291 290 291 294 296 296 293 292 300 306 305 304 304 304 309 312 310 306 305 307 307 303 300
260 261 262 262 263 264 264 265 266 266 266 266 265 265 265 264 264 264 265 266 268 270 274 275 276 276 277 278 278 276 276 275 275 275 275 276 277 277 278 279 280 281 281 282 281 280 280 281 281 281 282 282 282 283 284 284 284 284 283 282 281 282 283 287 291 290 289 292 295 294 293 292 297 303 303 301 301 302 305 312 311 307 305 306 308 306 301 297
261 261 261 262 263 264 264 264 263 264 264 264 264 265 264 264 266 268 270 270 270 271 273 274 275 276 276 277 277 277 276 275 274 274 275 275 275 276 277 279 280 280 281 281 281 282 283 282 282 283 283 283 283 283 283 283 283 282 282 281 281 283 285 287 288 288 290 293 292 291 291 294 300 302 299 299 300 302 308 312 309 306 305 307 308 304 298 295
262 262 262 262 262 263 263 263 263 262 262 262 263 262 263 265 268 271 274 275 274 272 272 273 274 274 274 275 275 276 277 276 276 276 275 274 274 275 276 277 278 280 280 281 282 283 283 283 283 284 283 283 282 282 281 281 280 281 281 282 284 286 285 285 286 288 290 290 289 291 292 295 299 297 294 297 300 303 309 311 307 306 306 307 307 303 298 297
264 263 263 263 263 263 263 263 263 262 261 260 260 261 264 267 269 272 274 275 275 274 273 272 271 272 272 273 274 275 276 277 277 276 275 275 275 275 276 276 277 278 279 281 282 282 282 282 283 282 282 281 280 279 279 279 279 280 282 284 286 286 285 285 287 288 288 287 289 291 292 295 296 292 291 296 300 303 308 307 303 305 307 306 305 301 297 296
265 264 263 263 264 264 263 264 263 262 261 259 259 264 268 268 268 270 271 273 274 274 273 272 271 271 271 272 273 274 275 275 275 275 275 275 276 276 277 277 278 277 279 280 281 280 278 278 278 278 278 278 277 278 278 279 280 281 283 284 285 284 284 285 286 287 287 287 288 290 292 293 291 289 293 299 301 305 309 305 303 306 306 303 301 298 296 296
265 264 263 263 263 263 263 263 262 262 262 261 262 268 271 270 270 270 270 271 273 274 273 272 272 272 272 272 272 273 273 273 273 274 275 275 276 277 278 278 278 278 278 279 278 277 277 276 275 274 275 275 277 278 278 279 280 281 283 282 282 282 282 283 285 286 287 286 287 289 290 290 289 290 295 299 302 308 308 304 303 304 304 302 300 297 297 298
264 264 263 263 263 262 261 262 262 263 264 266 268 270 271 271 271 271 272 273 273 273 272 272 272 272 271 271 271 272 272 273 273 274 274 275 276 277 278 278 278 279 280 280 280 280 280 279 277 275 274 275 275 275 277 280 281 281 280 279 279 280 282 284 284 285 285 286 288 290 288 288 289 291 295 300 305 309 305 300 300 301 302 301 298 298 298 299
263 263 262 262 262 261 261 262 262 263 265 268 270 270 269 269 269 271 272 272 272 272 271 271 270 270 270 271 272 273 274 274 275 275 275 275 276 277 277 279 280 281 281 281 281 281 281 280 280 279 277 275 274 276 278 277 276 275 276 277 278 281 284 284 284 285 286 287 289 289 287 287 289 292 297 304 308 307 300 296 299 301 301 299 298 298 298 299
263 262 261 261 261 261 262 262 262 263 264 265 266 266 268 269 270 269 269 269 270 270 270 270 270 270 271 272 273 274 275 275 275 275 275 275 276 277 278 280 281 281 280 279 279 280 280 279 279 279 280 279 278 278 276 273 273 273 274 275 278 281 283 283 284 286 287 287 286 284 284 287 289 294 302 306 305 303 298 297 301 303 300 298 297 298 298 298
263 262 262 261 261 261 261 262 262 262 262 263 264 265 267 269 269 268 268 268 269 270 271 271 272 272 273 274 274 275 274 275 275 275 275 275 276 277 280 281 282 281 279 278 278 279 279 278 278 279 280 280 279 277 275 275 275 275 276 280 283 284 284 284 284 285 283 282 282 280 282 286 290 299 305 303 301 299 295 296 302 303 300 297 297 297 297 298
263 264 263 262 262 261 262 262 262 261 262 264 265 265 266 267 267 267 268 268 269 270 272 273 273 273 273 273 274 274 275 276 276 275 276 277 278 280 281 282 281 280 278 277 278 278 278 278 278 278 278 277 277 276 275 275 277 279 282 285 285 285 284 284 283 283 281 282 282 279 280 286 295 305 305 300 299 296 293 297 301 300 296 294 294 295 295 296
261 262 262 262 262 262 262 262 263 264 264 264 264 264 265 265 265 265 266 267 268 270 271 272 272 272 272 273 274 275 276 276 275 276 277 279 280 281 281 280 278 277 277 277 278 277 276 276 276 276 275 274 276 277 278 279 281 282 284 283 282 282 283 282 283 284 283 284 282 278 281 290 300 305 301 298 298 294 294 298 299 295 292 291 292 293 295 296
260 260 260 261 263 264 264 264 265 266 266 265 264 264 264 265 265 266 267 268 269 270 270 270 270 271 271 272 272 273 273 273 274 276 278 280 281 281 280 278 277 276 277 277 276 276 275 273 272 272 271 273 276 279 280 281 280 280 280 280 280 281 281 282 283 283 283 284 282 280 286 296 302 302 299 299 297 295 297 298 293 289 288 289 291 294 295 296
258 258 258 259 261 263 263 263 264 265 266 265 265 265 265 266 267 268 268 268 268 268 268 268 269 269 269 268 269 270 271 273 274 276 277 279 279 279 278 277 276 276 276 276 276 275 273 272 271 271 271 272 276 278 278 277 276 277 279 279 281 282 283 283 283 283 285 283 281 285 294 299 300 299 298 298 297 297 296 291 286 286 287 289 292 294 294 295
256 257 257 257 258 259 260 259 260 262 264 266 266 266 266 267 267 266 265 266 267 267 267 266 266 267 267 269 271 271 272 273 273 274 276 277 278 278 278 277 277 277 277 276 274 272 271 271 272 273 273 273 275 277 277 276 276 278 279 280 281 283 284 283 283 285 286 282 283 293 299 296 296 299 299 299 299 294 288 285 284 285 287 290 291 292 293 295
257 258 258 256 256 257 258 258 259 261 263 264 265 266 266 265 265 264 264 265 266 266 266 266 265 267 268 270 271 272 272 273 273 274 276 277 277 277 276 277 277 277 276 273 270 269 269 270 271 273 274 275 276 277 276 276 276 278 278 279 281 282 282 282 282 284 285 285 289 297 295 291 294 298 299 301 296 286 284 285 285 285 287 289 290 291 294 296
257 258 258 257 256 256 257 259 259 259 260 260 261 261 261 262 262 263 265 266 266 266 267 266 266 267 269 269 271 272 273 273 274 275 276 276 274 274 274 275 274 274 272 269 267 268 269 271 273 275 275 276 276 276 276 275 275 276 276 277 279 280 280 281 282 285 287 289 292 294 291 290 294 298 300 298 288 284 285 285 284 285 287 288 289 292 296 298
254 256 257 258 258 257 257 258 259 260 259 259 259 260 260 260 261 262 264 265 266 267 267 267 268 269 270 271 271 271 271 271 273 274 275 275 273 272 272 272 271 270 269 268 269 270 272 274 276 276 275 274 276 276 274 272 273 273 272 274 278 279 279 282 285 288 288 287 288 290 289 290 294 298 297 289 284 285 285 283 284 286 287 288 290 294 297 297
255 255 256 256 257 256 255 255 256 257 257 257 257 259 260 260 260 261 263 263 263 264 265 267 269 269 269 267 267 269 271 272 272 271 270 270 270 270 270 269 268 268 267 268 269 270 272 273 274 274 272 273 275 273 271 271 272 270 271 276 280 282 283 286 287 286 284 284 285 285 285 288 294 294 287 283 285 285 281 282 285 286 287 289 292 296 297 295
258 257 257 256 257 256 256 254 253 253 254 255 256 257 258 259 259 259 260 260 259 261 263 265 267 266 264 263 265 268 270 270 270 268 265 263 264 266 267 269 269 269 270 270 270 270 270 271 271 271 271 272 272 271 272 272 269 270 275 282 285 286 286 285 283 281 281 282 282 281 283 287 289 284 281 283 284 282 281 284 286 287 289 292 295 296 295 292
Height
5900 5900 5901 5901 5901 5902 5902 5902 5902 5902 5902 5902 5902 5902 5902 5902 5902 5902 5901 5901 5901 5901 5900 5900 5899 5899 5899 5898 5898 5897 5896 5896 5895 5894 5893 5892 5892 5891 5890 5889 5889 5888 5887 5886 5885 5884 5883 5882 5881 5880 5879 5878 5877 5876 5875 5874 5873 5872 5871 5870 5869 5868 5867 5866 5865 5865 5864 5863 5862 5861 5860 5859 5858 5857 5857 5857 5856 5855 5854 5854 5853 5853 5852 5852 5851 5851 5850 5850
5898 5898 5899 5899 5899 5900 5900 5900 5901 5901 5901 5900 5900 5900 5900 5900 5900 5900 5900 5900 5900 5899 5899 5899 5898 5898 5897 5897 5896 5896 5896 5895 5894 5893 5892 5892 5891 5890 5889 5888 5888 5887 5886 5885 5884 5883 5882 5881 5880 5879 5878 5877 5876 5875 5874 5873 5872 5871 5870 5869 5868 5867 5866 5865 5864 5863 5862 5861 5860 5859 5858 5857 5856 5856 5855 5854 5854 5853 5852 5852 5852 5851 5850 5850 5849 5848 5848 5847
5896 5896 5897 5897 5897 5897 5898 5898 5898 5899 5899 5899 5899 5898 5898 5898 5899 5899 5898 5898 5898 5898 5898 5897 5897 5897 5896 5896 5895 5895 5894 5894 5893 5892 5892 5891 5890 5889 5888 5888 5887 5886 5885 5884 5883 5882 5881 5880 5880 5879 5877 5876 5875 5874 5873 5872 5871 5870 5869 5868 5867 5866 5865 5864 5863 5862 5861 5860 5859 5858 5856 5855 5855 5854 5853 5852 5852 5851 5850 5850 5850 5849 5848 5848 5847 5846 5846 5845
5893 5894 5894 5895 5895 5895 5895 5896 5896 5896 5896 5897 5897 5897 5897 5896 5897 5897 5897 5897 5897 5896 5896 5896 5896 5895 5895 5894 5894 5893 5893 5892 5892 5891 5891 5890 5889 5888 5887 5886 5886 5885 5884 5883 5882 5881 5880 5879 5878 5877 5876 5876 5875 5874 5872 5871 5870 5869 5868 5867 5866 5865 5864 5863 5861 5860 5859 5858 5857 5856 5855 5854 5853 5852 5851 5850 5850 5849 5848 5848 5847 5847 5846 5845 5845 5844 5843 5843
5891 5891 5891 5892 5892 5893 5893 5893 5893 5894 5894 5894 5894 5895 5895 5894 5894 5895 5895 5895 5895 5895 5894 5894 5894 5894 5893 5893 5892 5892 5891 5891 5890 5890 5889 5889 5888 5887 5886 5885 5884 5884 5883 5882 5881 5880 5879 5878 5877 5876 5875 5874 5873 5872 5871 5870 5869 5868 5866 5865 5864 5863 5862 5861 5860 5859 5858 5857 5856 5855 5854 5853 5852 5851 5850 5849 5848 5848 5847 5846 5845 5844 5843 5843 5842 5841 5840 5840
5888 5888 5888 5889 5889 5890 5890 5890 5891 5891 5891 5892 5892 5892 5892 5892 5892 5892 5893 5893 5893 5892 5892 5892 5892 5892 5892 5891 5891 5890 5890 5889 5889 5888 5887 5887 5886 5886 5885 5884 5883 5882 5881 5881 5880 5879 5878 5877 5876 5875 5874 5873 5872 5871 5870 5869 5868 5867 5865 5864 5863 5862 5861 5860 5859 5857 5856 5855 5854 5853 5852 5851 5850 5849 5849 5848 5847 5846 5845 5844 5843 5842 5841 5840 5839 5838 5838 5837
5885 5885 5885 5886 5886 5886 5887 5887 5888 5888 5888 5889 5889 5889 5890 5890 5890 5890 5890 5890 5890 5890 5890 5890 5890 5890 5889 5889 5889 5888 5888 5887 5887 5886 5886 5885 5885 5884 5884 5883 5882 5881 5880 5879 5878 5878 5877 5876 5875 5874 5873 5871 5870 5869 5868 5867 5866 5865 5864 5863 5862 5860 5859 5858 5857 5856 5855 5853 5852 5851 5850 5849 5848 5848 5847 5846 5845 5844 5843 5842 5841 5840 5839 5838 5837 5836 5835 5834
5883 5883 5883 5883 5883 5883 5884 5884 5884 5885 5885 5886 5886 5886 5887 5887 5887 5887 5887 5887 5887 5887 5887 5887 5887 5887 5887 5887 5887 5886 5886 5885 5885 5884 5884 5884 5883 5882 5882 5881 5880 5880 5879 5878 5877 5876 5875 5874 5873 5872 5871 5870 5869 5867 5866 5865 5864 5863 5862 5861 5860 5858 5857 5856 5855 5854 5853 5852 5851 5850 5849 5847 5846 5846 5845 5844 5843 5842 5841 5840 5839 5838 5837 5835 5834 5833 5832 5831
5880 5880 5880 5881 5881 5881 5881 5881 5881 5881 5882 5882 5883 5883 5883 5884 5884 5884 5884 5884 5884 5884 5884 5884 5884 5884 5884 5884 5884 5883 5883 5883 5883 5882 5882 5881 5881 5880 5880 5879 5878 5878 5877 5876 5875 5874 5873 5872 5872 5871 5870 5868 5867 5866 5865 5863 5862 5861 5860 5859 5858 5856 5855 5854 5853 5852 5851 5850 5849 5848 5847 5845 5844 5844 5843 5842 5841 5840 5839 5837 5836 5835 5834 5832 5831 5830 5829 5828
5877 5877 5878 5878 5878 5878 5878 5878 5878 5878 5878 5879 5879 5880 5880 5880 5880 5881 5881 5881 5881 5881 5881 5881 5881 5881 5881 5881 5881 5880 5880 5880 5880 5880 5879 5879 5878 5878 5877 5877 5876 5875 5875 5874 5873 5872 5871 5870 5870 5869 5868 5867 5866 5865 5863 5862 5860 5859 5858 5856 5855 5854 5853 5852 5851 5850 5849 5848 5847 5847 5846 5844 5842 5842 5841 5840 5839 5838 5837 5835 5834 5832 5831 5830 5828 5827 5826 5825
5874 5874 5874 5875 5875 5875 5875 5875 5875 5875 5875 5875 5876 5876 5877 5877 5877 5877 5877 5877 5878 5878 5878 5878 5878 5878 5878 5878 5878 5878 5877 5877 5877 5877 5876 5876 5876 5875 5875 5874 5874 5873 5872 5872 5871 5870 5869 5868 5867 5866 5866 5865 5864 5863 5862 5860 5859 5857 5856 5854 5853 5851 5850 5849 5848 5847 5846 5845 5845 5845 5845 5842 5839 5839 5839 5838 5837 5836 5834 5833 5831 5830 5828 5827 5825 5824 5823 5822
5871 5871 5871 5871 5871 5872 5871 5872 5872 5872 5872 5872 5872 5873 5873 5873 5873 5874 5874 5874 5874 5874 5875 5875 5875 5875 5875 5875 5875 5875 5874 5874 5874 5874 5873 5873 5873 5872 5872 5871 5871 5870 5870 5869 5868 5867 5867 5866 5865 5864 5863 5862 5862 5861 5860 5858 5857 5856 5854 5852 5851 5849 5848 5846 5845 5844 5843 5842 5842 5842 5843 5841 5836 5836 5836 5835 5834 5833 5832 5830 5828 5827 5825 5824 5823 5821 5820 5818
5867 5867 5867 5867 5868 5868 5868 5868 5868 5868 5868 5868 5868 5869 5869 5870 5869 5870 5870 5870 5870 5870 5871 5871 5871 5871 5872 5872 5871 5871 5871 5871 5871 5870 5870 5870 5869 5869 5869 5868 5868 5867 5867 5866 5866 5865 5864 5863 5862 5862 5861 5860 5859 5858 5857 5856 5855 5853 5852 5850 5849 5847 5845 5844 5842 5842 5840 5839 5838 5838 5841 5841 5835 5832 5832 5832 5831 5830 5829 5827 5825 5824 5822 5821 5819 5818 5816 5815
5863 5863 5864 5864 5864 5864 5864 5864 5864 5865 5865 5865 5865 5865 5866 5866 5866 5866 5866 5866 5866 5867 5867 5867 5867 5868 5868 5869 5868 5867 5867 5867 5867 5867 5867 5866 5866 5866 5866 5865 5865 5864 5863 5863 5862 5862 5861 5860 5860 5859 5858 5857 5856 5855 5854 5853 5852 5851 5850 5848 5847 5845 5843 5841 5840 5839 5837 5835 5835 5833 5836 5839 5836 5831 5829 5828 5828 5827 5826 5824 5822 5820 5819 5817 5816 5814 5813 5811
5859 5860 5860 5860 5860 5861 5861 5861 5861 5861 5861 5861 5861 5861 5861 5862 5862 5862 5862 5862 5863 5863 5863 5863 5863 5864 5865 5865 5864 5864 5863 5863 5863 5863 5863 5863 5863 5863 5863 5862 5861 5861 5860 5860 5859 5858 5858 5857 5856 5856 5855 5854 5853 5852 5851 5850 5849 5847 5847 5846 5844 5843 5841 5839 5837 5836 5834 5832 5832 5829 5830 5835 5835 5830 5827 5826 5824 5824 5824 5822 5819 5817 5816 5814 5812 5811 5809 5807
5856 5856 5856 5856 5857 5857 5857 5857 5857 5857 5857 5857 5857 5857 5857 5858 5858 5858 5858 5859 5859 5859 5859 5859 5859 5859 5860 5861 5861 5860 5860 5860 5860 5860 5860 5860 5860 5860 5859 5859 5858 5857 5857 5856 5855 5855 5854 5853 5853 5852 5852 5851 5850 5848 5847 5847 5846 5844 5843 5842 5842 5840 5839 5837 5834 5832 5830 5828 5829 5826 5825 5830 5831 5828 5826 5823 5821 5821 5821 5819 5816 5815 5813 5811 5809 5808 5806 5804
5852 5852 5852 5852 5853 5853 5853 5853 5853 5854 5854 5853 5853 5853 5852 5853 5854 5854 5854 5854 5854 5855 5854 5855 5855 5855 5856 5857 5857 5856 5856 5856 5856 5856 5857 5856 5857 5856 5856 5855 5855 5854 5853 5853 5852 5851 5850 5849 5849 5849 5849 5848 5846 5845 5844 5843 5843 5841 5840 5839 5838 5837 5835 5834 5831 5829 5827 5825 5825 5822 5821 5824 5827 5826 5824 5821 5818 5818 5818 5816 5813 5812 5810 5808 5806 5804 5803 5801
5847 5848 5848 5848 5849 5849 5849 5849 5850 5850 5850 5849 5849 5849 5848 5848 5850 5850 5850 5850 5850 5850 5850 5850 5850 5850 5851 5852 5852 5852 5851 5851 5852 5853 5853 5853 5853 5852 5852 5852 5851 5850 5850 5849 5848 5847 5846 5846 5846 5846 5845 5844 5842 5841 5840 5839 5839 5837 5836 5835 5834 5834 5832 5831 5828 5825 5823 5821 5822 5819 5816 5819 5822 5823 5821 5818 5816 5815 5815 5812 5810 5809 5806 5804 5802 5800 5799 5797
5843 5843 5843 5844 5844 5844 5844 5845 5845 5845 5846 5845 5845 5845 5845 5844 5844 5845 5845 5845 5845 5845 5845 5845 5845 5846 5847 5847 5847 5847 5847 5847 5848 5849 5850 5849 5849 5849 5848 5848 5847 5846 5846 5845 5844 5843 5842 5841 5842 5843 5841 5839 5838 5838 5836 5835 5834 5833 5832 5831 5830 5829 5829 5828 5824 5821 5819 5816 5818 5816 5811 5813 5817 5818 5817 5815 5813 5812 5811 5808 5807 5805 5802 5800 5798 5796 5794 5793
5838 5838 5839 5839 5840 5840 5839 5840 5841 5841 5841 5841 5840 5840 5840 5840 5840 5840 5840 5840 5840 5840 5840 5840 5840 5841 5842 5842 5842 5842 5842 5843 5844 5846 5846 5845 5845 5844 5844 5844 5843 5842 5842 5841 5839 5839 5838 5837 5839 5839 5836 5835 5834 5833 5832 5831 5829 5828 5827 5826 5825 5825 5824 5823 5820 5818 5815 5811 5813 5812 5806 5809 5812 5812 5813 5811 5809 5808 5806 5804 5804 5801 5798 5795 5793 5792 5790 5788
5833 5833 5834 5834 5835 5835 5834 5835 5836 5836 5836 5837 5837 5836 5835 5835 5834 5835 5835 5835 5835 5835 5835 5835 5835 5836 5837 5837 5837 5837 5838 5839 5840 5842 5841 5841 5840 5840 5839 5839 5838 5838 5838 5836 5835 5835 5834 5833 5836 5834 5831 5831 5830 5829 5828 5827 5825 5823 5822 5821 5821 5820 5818 5818 5816 5813 5811 5806 5807 5807 5801 5804 5808 5807 5808 5807 5805 5805 5802 5800 5800 5797 5794 5791 5789 5788 5785 5783
5828 5828 5829 5829 5831 5830 5829 5830 5831 5831 5831 5832 5832 5831 5831 5830 5829 5829 5828 5829 5831 5830 5829 5830 5830 5831 5832 5832 5832 5833 5833 5835 5837 5837 5837 5836 5836 5835 5834 5834 5834 5833 5833 5831 5830 5829 5828 5830 5832 5830 5827 5827 5826 5825 5824 5822 5821 5819 5817 5816 5816 5816 5812 5812 5811 5809 5806 5801 5800 5800 5795 5798 5803 5803 5804 5802 5800 5801 5798 5796 5796 5793 5790 5787 5785 5784 5782 5778
5823 5823 5823 5824 5825 5825 5824 5825 5826 5826 5826 5826 5827 5826 5826 5825 5824 5824 5822 5821 5824 5826 5825 5824 5825 5825 5827 5828 5828 5829 5829 5831 5832 5832 5832 5831 5830 5829 5828 5829 5828 5828 5828 5827 5825 5823 5823 5826 5827 5825 5824 5822 5821 5820 5819 5818 5816 5814 5812 5812 5811 5811 5807 5805 5805 5803 5801 5796 5794 5793 5787 5789 5795 5797 5801 5799 5794 5795 5794 5792 5791 5788 5786 5784 5782 5780 5777 5774
5817 5818 5818 5819 5819 5818 5818 5819 5820 5821 5821 5821 5821 5821 5821 5821 5820 5819 5817 5812 5813 5820 5822 5819 5819 5820 5822 5823 5824 5825 5825 5826 5827 5827 5827 5826 5825 5824 5823 5823 5822 5822 5823 5821 5819 5818 5819 5821 5821 5821 5819 5817 5816 5815 5815 5814 5811 5809 5808 5808 5807 5805 5803 5800 5798 5796 5795 5792 5789 5787 5780 5779 5783 5787 5795 5798 5790 5787 5788 5788 5786 5784 5782 5780 5778 5776 5773 5770
5812 5812 5813 5814 5813 5813 5813 5813 5814 5815 5816 5815 5815 5816 5816 5816 5816 5814 5813 5806 5801 5810 5817 5814 5814 5816 5818 5819 5819 5821 5820 5821 5822 5823 5822 5821 5820 5818 5818 5818 5817 5818 5818 5816 5814 5812 5815 5817 5815 5815 5814 5813 5811 5811 5811 5809 5805 5803 5803 5804 5802 5799 5798 5796 5793 5790 5787 5786 5784 5783 5778 5770 5768 5774 5784 5790 5787 5782 5781 5782 5781 5778 5777 5777 5775 5772 5769 5765
5806 5807 5808 5808 5808 5808 5807 5807 5809 5809 5809 5810 5810 5810 5810 5810 5811 5809 5808 5800 5792 5798 5807 5808 5810 5812 5815 5816 5816 5817 5815 5815 5818 5817 5816 5816 5814 5813 5812 5812 5812 5813 5812 5810 5808 5807 5811 5813 5810 5810 5808 5807 5806 5806 5807 5803 5799 5797 5798 5800 5797 5795 5793 5790 5789 5786 5781 5779 5777 5779 5779 5765 5756 5764 5775 5779 5780 5779 5775 5774 5773 5773 5772 5771 5770 5767 5763 5760
5801 5801 5802 5802 5802 5802 5801 5802 5803 5803 5804 5804 5804 5805 5805 5805 5805 5804 5802 5792 5782 5787 5794 5799 5805 5808 5811 5813 5813 5813 5811 5811 5813 5812 5811 5810 5809 5808 5807 5807 5808 5807 5806 5804 5802 5803 5807 5807 5806 5805 5802 5801 5801 5802 5801 5797 5794 5792 5793 5794 5792 5791 5788 5785 5784 5781 5778 5774 5769 5774 5779 5762 5747 5756 5769 5772 5773 5776 5773 5768 5765 5766 5766 5765 5763 5760 5757 5753
5795 5795 5796 5797 5797 5796 5796 5796 5796 5797 5798 5798 5798 5799 5798 5799 5800 5799 5797 5784 5773 5777 5784 5791 5799 5803 5807 5809 5809 5809 5807 5806 5807 5806 5806 5806 5804 5803 5802 5803 5803 5801 5800 5799 5797 5799 5801 5800 5800 5799 5797 5797 5797 5796 5794 5792 5790 5788 5788 5787 5785 5785 5782 5780 5778 5775 5774 5768 5763 5771 5774 5760 5744 5747 5759 5765 5766 5770 5770 5764 5760 5759 5759 5758 5756 5753 5750 5746
5789 5789 5790 5791 5791 5791 5791 5790 5791 5791 5791 5792 5793 5792 5792 5794 5793 5793 5789 5774 5764 5770 5778 5784 5791 5797 5801 5803 5803 5803 5802 5801 5800 5800 5801 5800 5798 5798 5797 5797 5796 5795 5795 5793 5792 5795 5795 5795 5794 5793 5793 5793 5792 5790 5788 5787 5785 5784 5783 5781 5780 5779 5776 5774 5771 5769 5769 5761 5759 5767 5767 5757 5742 5739 5751 5759 5759 5761 5762 5759 5755 5754 5753 5751 5749 5747 5743 5739
5783 5783 5784 5785 5785 5785 5785 5785 5785 5785 5785 5786 5786 5786 5787 5787 5787 5786 5775 5761 5761 5770 5775 5778 5783 5790 5795 5796 5797 5796 5795 5795 5794 5794 5794 5793 5792 5792 5791 5791 5790 5789 5789 5788 5788 5790 5790 5789 5788 5787 5788 5787 5786 5784 5783 5782 5780 5779 5778 5775 5774 5772 5769 5767 5764 5764 5762 5754 5757 5761 5759 5754 5739 5732 5745 5753 5751 5754 5755 5753 5751 5749 5747 5744 5742 5740 5737 5733
5777 5777 5777 5778 5779 5779 5779 5780 5780 5779 5780 5779 5779 5780 5780 5780 5780 5773 5758 5753 5763 5768 5770 5774 5778 5783 5787 5788 5789 5789 5789 5789 5788 5788 5787 5786 5785 5784 5784 5785 5784 5783 5782 5782 5783 5784 5783 5782 5782 5782 5781 5781 5780 5779 5777 5777 5775 5774 5772 5770 5769 5765 5761 5760 5759 5759 5755 5749 5752 5753 5751 5748 5734 5730 5742 5744 5743 5746 5747 5747 5747 5744 5741 5737 5736 5734 5730 5726
5770 5770 5771 5772 5773 5773 5773 5773 5774 5774 5773 5773 5773 5773 5773 5772 5767 5757 5749 5754 5762 5762 5766 5773 5774 5776 5778 5779 5781 5783 5783 5782 5782 5782 5780 5779 5778 5777 5778 5778 5777 5776 5775 5776 5777 5776 5776 5776 5775 5775 5775 5775 5774 5773 5772 5771 5770 5768 5766 5764 5761 5757 5755 5754 5753 5752 5747 5744 5746 5747 5743 5736 5728 5731 5738 5737 5736 5737 5739 5741 5741 5738 5735 5731 5730 5727 5723 5719
5762 5764 5765 5765 5766 5767 5767 5767 5767 5766 5766 5766 5766 5766 5767 5762 5751 5746 5748 5755 5758 5758 5764 5768 5768 5769 5770 5770 5773 5774 5775 5775 5776 5775 5774 5773 5772 5771 5772 5771 5771 5770 5769 5770 5769 5767 5768 5769 5769 5769 5769 5769 5767 5767 5766 5764 5763 5761 5759 5757 5754 5751 5749 5747 5747 5743 5738 5740 5741 5739 5735 5727 5724 5730 5731 5730 5731 5731 5733 5736 5733 5731 5729 5726 5724 5721 5716 5712
5755 5756 5758 5758 5759 5759 5759 5759 5759 5759 5758 5758 5758 5759 5758 5748 5740 5742 5749 5752 5755 5757 5759 5759 5761 5762 5763 5763 5763 5765 5767 5767 5768 5768 5768 5767 5765 5765 5766 5765 5765 5764 5763 5762 5761 5761 5761 5761 5762 5763 5762 5763 5761 5761 5759 5757 5755 5753 5752 5749 5747 5747 5744 5740 5740 5735 5732 5734 5734 5730 5727 5721 5721 5724 5721 5722 5725 5725 5727 5729 5726 5724 5723 5720 5717 5713 5709 5706
5748 5749 5750 5751 5752 5752 5751 5750 5751 5750 5750 5749 5750 5750 5745 5737 5737 5743 5747 5748 5751 5753 5753 5754 5755 5755 5754 5754 5755 5757 5758 5758 5760 5761 5760 5759 5759 5759 5759 5759 5760 5759 5758 5756 5755 5756 5753 5752 5755 5755 5754 5756 5755 5753 5753 5749 5747 5745 5744 5742 5740 5742 5739 5734 5732 5731 5729 5728 5726 5724 5719 5717 5719 5715 5712 5718 5720 5719 5722 5722 5718 5717 5715 5712 5708 5705 5701 5698
5740 5741 5742 5743 5745 5744 5741 5740 5741 5741 5740 5740 5740 5739 5735 5734 5737 5741 5741 5742 5744 5746 5747 5747 5748 5747 5746 5746 5748 5750 5751 5750 5752 5751 5750 5751 5752 5751 5751 5753 5754 5753 5752 5751 5749 5750 5747 5746 5748 5746 5745 5747 5746 5745 5745 5742 5739 5737 5737 5737 5736 5735 5732 5727 5725 5726 5724 5720 5719 5719 5712 5712 5714 5705 5704 5715 5716 5714 5717 5714 5711 5711 5708 5704 5700 5697 5694 5690
5731 5732 5734 5736 5737 5735 5732 5731 5731 5730 5730 5730 5729 5730 5731 5732 5734 5735 5735 5736 5737 5738 5739 5739 5740 5740 5739 5740 5741 5743 5743 5742 5743 5742 5742 5743 5742 5742 5744 5746 5747 5746 5747 5745 5742 5742 5740 5738 5740 5739 5736 5737 5737 5736 5735 5734 5731 5730 5731 5731 5729 5726 5724 5722 5718 5718 5717 5711 5711 5713 5709 5706 5704 5696 5699 5710 5709 5708 5709 5704 5701 5702 5699 5696 5693 5689 5686 5683
5722 5723 5725 5728 5729 5727 5724 5722 5721 5720 5719 5719 5721 5724 5725 5726 5729 5730 5729 5730 5731 5732 5731 5730 5731 5732 5732 5733 5733 5734 5735 5734 5735 5734 5734 5734 5733 5734 5736 5737 5738 5739 5740 5738 5733 5732 5731 5728 5731 5732 5728 5728 5730 5728 5726 5726 5725 5724 5724 5724 5721 5717 5716 5716 5713 5711 5709 5703 5700 5706 5706 5698 5692 5692 5698 5704 5703 5702 5700 5694 5692 5691 5689 5687 5684 5680 5677 5674
5713 5713 5716 5721 5720 5717 5715 5714 5713 5711 5709 5710 5716 5720 5719 5720 5722 5723 5725 5725 5725 5724 5722 5722 5724 5723 5723 5724 5725 5726 5726 5726 5727 5727 5726 5726 5725 5726 5728 5728 5729 5731 5732 5729 5724 5723 5722 5717 5719 5724 5723 5722 5723 5721 5720 5722 5719 5716 5715 5714 5712 5710 5709 5709 5707 5704 5701 5696 5693 5696 5698 5689 5683 5688 5696 5698 5699 5697 5692 5686 5685 5683 5682 5679 5676 5673 5670 5667
5703 5703 5706 5713 5710 5705 5705 5704 5704 5703 5701 5705 5711 5711 5710 5712 5715 5718 5719 5718 5716 5714 5713 5715 5716 5714 5715 5716 5717 5719 5719 5718 5719 5719 5717 5717 5717 5717 5720 5721 5722 5723 5723 5720 5717 5715 5713 5708 5708 5713 5714 5714 5716 5716 5716 5715 5711 5707 5706 5705 5705 5704 5702 5698 5697 5696 5693 5690 5687 5685 5684 5680 5676 5682 5691 5693 5692 5690 5684 5679 5679 5678 5675 5672 5669 5666 5663 5660
5692 5690 5696 5704 5700 5696 5696 5692 5694 5697 5694 5697 5702 5701 5701 5705 5710 5712 5711 5708 5706 5705 5705 5706 5707 5707 5708 5709 5709 5711 5711 5709 5710 5709 5707 5708 5709 5709 5712 5714 5714 5715 5714 5711 5709 5707 5704 5700 5699 5701 5702 5704 5707 5708 5705 5702 5700 5698 5697 5698 5698 5698 5696 5689 5687 5689 5687 5682 5679 5673 5669 5668 5671 5678 5687 5687 5683 5681 5677 5672 5672 5671 5668 5664 5661 5658 5656 5653
5679 5679 5688 5692 5688 5688 5685 5680 5686 5688 5683 5688 5694 5694 5696 5698 5700 5702 5702 5701 5698 5697 5698 5698 5699 5700 5701 5701 5702 5703 5702 5700 5700 5699 5697 5699 5702 5703 5706 5707 5705 5704 5703 5700 5700 5699 5696 5692 5690 5691 5693 5696 5697 5696 5693 5690 5689 5688 5688 5691 5692 5690 5688 5682 5678 5680 5678 5672 5668 5663 5655 5655 5666 5678 5682 5680 5676 5675 5671 5667 5666 5663 5659 5656 5653 5651 5649 5646
5671 5672 5677 5676 5675 5677 5672 5669 5676 5675 5674 5682 5686 5686 5687 5688 5689 5693 5694 5693 5690 5690 5690 5690 5691 5692 5692 5693 5693 5693 5693 5691 5690 5690 5688 5690 5694 5697 5699 5699 5696 5693 5692 5691 5691 5691 5687 5682 5681 5681 5683 5686 5687 5684 5681 5679 5678 5679 5681 5684 5682 5678 5678 5675 5670 5668 5665 5660 5657 5652 5643 5645 5663 5675 5674 5671 5669 5668 5665 5662 5660 5656 5651 5648 5646 5644 5642 5639
5665 5665 5664 5663 5663 5661 5658 5661 5666 5664 5667 5675 5675 5675 5677 5676 5679 5684 5685 5683 5683 5683 5682 5681 5682 5681 5682 5685 5684 5684 5685 5680 5678 5680 5681 5683 5686 5689 5690 5688 5685 5683 5683 5683 5682 5681 5677 5673 5673 5672 5671 5672 5673 5672 5670 5670 5671 5672 5673 5672 5670 5670 5669 5664 5661 5658 5650 5645 5645 5641 5631 5638 5659 5666 5662 5662 5661 5659 5658 5655 5651 5648 5643 5641 5639 5637 5634 5632
5656 5654 5653 5654 5652 5647 5648 5656 5658 5654 5658 5662 5661 5664 5667 5665 5670 5676 5676 5675 5676 5675 5673 5671 5671 5672 5674 5675 5674 5674 5674 5671 5670 5672 5675 5676 5677 5678 5679 5676 5675 5675 5675 5675 5673 5669 5665 5663 5663 5661 5657 5657 5660 5661 5662 5663 5663 5662 5661 5662 5661 5662 5660 5655 5653 5648 5636 5630 5633 5631 5625 5633 5651 5656 5653 5654 5653 5651 5651 5646 5641 5639 5636 5634 5632 5629 5627 5624
5644 5641 5642 5646 5642 5635 5639 5649 5649 5643 5647 5650 5649 5653 5657 5658 5663 5668 5666 5665 5666 5665 5662 5660 5662 5663 5664 5664 5663 5664 5665 5664 5663 5664 5667 5669 5667 5666 5666 5666 5667 5667 5666 5666 5663 5658 5653 5651 5651 5650 5646 5645 5649 5653 5655 5653 5651 5651 5651 5653 5654 5654 5653 5649 5643 5636 5627 5619 5619 5626 5627 5626 5637 5645 5645 5647 5648 5643 5641 5637 5632 5630 5628 5627 5625 5622 5620 5617
5630 5627 5632 5638 5634 5625 5628 5638 5639 5636 5639 5639 5637 5643 5649 5650 5653 5655 5654 5655 5656 5654 5651 5651 5653 5652 5653 5656 5655 5655 5657 5657 5655 5654 5658 5660 5659 5656 5655 5656 5657 5657 5657 5656 5652 5647 5640 5637 5640 5641 5637 5636 5640 5645 5646 5642 5640 5643 5643 5644 5647 5646 5644 5640 5632 5627 5624 5611 5606 5622 5628 5618 5621 5635 5637 5639 5641 5635 5631 5628 5624 5622 5621 5619 5617 5615 5613 5610
5618 5617 5621 5627 5622 5614 5616 5626 5631 5630 5629 5629 5627 5632 5637 5638 5640 5642 5645 5647 5645 5643 5641 5640 5643 5645 5647 5650 5646 5644 5648 5648 5645 5647 5650 5652 5650 5646 5645 5648 5647 5647 5648 5644 5640 5637 5629 5625 5632 5633 5628 5629 5633 5635 5636 5632 5631 5635 5634 5635 5639 5638 5634 5630 5624 5622 5619 5605 5599 5613 5618 5610 5614 5625 5629 5631 5630 5624 5620 5621 5618 5614 5613 5610 5608 5607 5606 5603
5607 5606 5609 5611 5608 5606 5608 5616 5621 5617 5615 5618 5616 5618 5624 5627 5629 5634 5636 5634 5632 5634 5633 5631 5636 5641 5640 5641 5637 5634 5638 5639 5637 5640 5642 5640 5639 5637 5637 5638 5637 5636 5636 5632 5629 5627 5619 5616 5625 5626 5619 5619 5624 5626 5625 5621 5620 5623 5624 5626 5631 5629 5623 5620 5618 5619 5615 5603 5599 5603 5601 5600 5610 5618 5619 5621 5619 5612 5610 5611 5609 5607 5605 5601 5599 5599 5598 5595
5596 5595 5599 5598 5593 5595 5599 5603 5606 5602 5602 5606 5604 5606 5615 5617 5620 5626 5626 5623 5623 5626 5625 5624 5630 5634 5631 5630 5627 5623 5629 5632 5629 5631 5632 5627 5626 5627 5626 5626 5627 5626 5624 5622 5621 5618 5611 5609 5616 5617 5607 5605 5615 5619 5614 5609 5609 5609 5612 5618 5622 5620 5615 5613 5614 5615 5610 5601 5598 5598 5588 5590 5607 5614 5609 5608 5607 5604 5601 5598 5599 5599 5596 5592 5591 5590 5589 5586
5586 5586 5590 5585 5578 5581 5585 5588 5591 5589 5588 5592 5593 5598 5605 5605 5612 5618 5614 5611 5614 5615 5615 5617 5622 5623 5619 5615 5614 5616 5622 5624 5620 5622 5622 5615 5611 5612 5612 5613 5615 5614 5614 5615 5612 5608 5604 5601 5605 5606 5593 5592 5608 5611 5600 5598 5597 5593 5599 5610 5616 5615 5611 5608 5608 5606 5601 5595 5594 5592 5583 5585 5601 5606 5598 5596 5596 5593 5590 5589 5589 5589 5587 5584 5583 5582 5580 5577
5575 5574 5577 5573 5565 5566 5572 5575 5576 5573 5573 5580 5586 5590 5591 5593 5602 5606 5598 5597 5603 5606 5606 5609 5611 5610 5604 5602 5608 5614 5615 5612 5608 5609 5608 5602 5598 5599 5600 5601 5602 5603 5604 5605 5602 5599 5597 5592 5595 5595 5582 5581 5598 5599 5590 5587 5579 5577 5592 5605 5608 5609 5605 5599 5595 5594 5592 5588 5585 5582 5581 5586 5594 5593 5588 5587 5587 5581 5579 5581 5580 5577 5577 5576 5575 5574 5571 5568